Japanese version Home page |
Updated on May 10, 2003 |
Profile
|
Orbital ElementsT 2001 June 2.5503 TT MPCM q 3.750046 (2000.0) P Q z +0.018168 Peri. 285.1926 +0.5908859 +0.7379454 Node 330.1124 +0.7118983 -0.6670582 e 0.931869 Incl. 139.1357 -0.3795455 -0.1023227 From 33 observations 2001 Sept. 26-Nov. 15.
|
Finding Charts
|
Magnitudes Graphm1 = 9.5 + 5 log d + 10.0 log r
|
The orbital elements are published at the MPC Ephemerides and Orbital Elements.
|